Overview Statistics Trail Chart Weather Telemetry Raw packets
 

This is the latest recevied weather packets stored in our database for station/object PU5BHV. If no packets are shown the sender has not sent any weather packets the latest 10 day(s).

<< 46 47 48 49 50 51 52 >>
Time Temp. Humidity Pressure Rain* Wind** Luminosity Snow
1777310673 30.56° C 40% 1012.2 hPa 0 mm - 484 W/m² -
1777310370 30° C 42% 1012.1 hPa 0 mm - 465 W/m² -
1777310067 30° C 43% 1012.2 hPa 0 mm - 472 W/m² -
1777309765 30.56° C 45% 1012.3 hPa 0 mm - 516 W/m² -
1777309463 30° C 44% 1012.4 hPa 0 mm - 530 W/m² -
1777309159 29.44° C 43% 1012.6 hPa 0 mm - 536 W/m² -
1777308858 29.44° C 44% 1012.4 hPa 0 mm - 536 W/m² -
1777308553 30° C 45% 1012.6 hPa 0 mm - 557 W/m² -
1777308249 29.44° C 46% 1012.7 hPa 0 mm - 521 W/m² -
1777307944 29.44° C 44% 1012.7 hPa 0 mm - 563 W/m² -
1777307642 28.89° C 41% 1012.8 hPa 0 mm - 596 W/m² -
1777307339 28.89° C 44% 1012.8 hPa 0 mm - 570 W/m² -
1777307036 28.89° C 44% 1013 hPa 0 mm - 593 W/m² -
1777306733 28.89° C 46% 1013 hPa 0 mm - 592 W/m² -
1777306431 28.89° C 47% 1012.9 hPa 0 mm - 603 W/m² -
1777306131 28.89° C 47% 1013.1 hPa 0 mm - 627 W/m² -
1777305827 28.89° C 47% 1013.1 hPa 0 mm - 604 W/m² -
1777305523 28.89° C 47% 1013.2 hPa 0 mm - 631 W/m² -
1777305218 28.33° C 48% 1013.2 hPa 0 mm - 628 W/m² -
1777304913 28.89° C 47% 1013.3 hPa 0 mm - 590 W/m² -
1777304610 28.33° C 50% 1013.3 hPa 0 mm - 596 W/m² -
1777304307 28.89° C 49% 1013.4 hPa 0 mm - 592 W/m² -
1777304004 28.33° C 48% 1013.5 hPa 0 mm - 568 W/m² -
1777303701 28.33° C 48% 1013.8 hPa 0 mm - 614 W/m² -
1777303398 28.33° C 47% 1013.8 hPa 0 mm - 671 W/m² -

* Rain latest hour (hover to see other rain measurements)
** Current wind speed in m/s (hover to see current wind gust speed)